This demonstration page uses our WeatherBlox Daily Observations layout. Learn more.

Left ArrowRight Arrow

44.8408, -93.29828

Hourly Observations for December 19, 2019

Temp ( °F °C ) Dew Point ( °F °C ) Humidity (%) Winds ( mph kmh ) Pressure ( in mb ) Visibility ( mi km ) Precip ( " mm )
12:53 am 00:53 Mostly Clear 13 -10.6 6 -14.4 74 74 SE 7 11 30.06 1018 10 16 0.00 0.00
1:53 am 01:53 Clear 14 -10 7 -13.9 73 73 SE 6 9 30.07 1018 10 16 0.00 0.00
2:53 am 02:53 Clear 15 -9.4 9 -12.8 77 77 SSE 6 9 30.08 1019 10 16 0.00 0.00
3:53 am 03:53 Clear 14 -10 9 -12.8 80 80 SE 6 9 30.08 1019 10 16 0.00 0.00
4:53 am 04:53 Clear 15 -9.4 11 -11.7 84 84 ESE 3 6 30.09 1019 9 14 0.00 0.00
5:53 am 05:53 Clear 15 -9.4 10 -12.2 80 80 ESE 5 7 30.10 1019 9 14 0.00 0.00
6:53 am 06:53 Clear 14 -10 9 -12.8 80 80 Calm 30.12 1020 8 13 0.00 0.00
7:53 am 07:53 Sunny with Mist and Fog 13 -10.6 9 -12.8 84 84 ENE 3 6 30.14 1021 6 10 0.00 0.00
8:53 am 08:53 Mostly Sunny 16 -8.9 12 -11.1 84 84 Calm 30.15 1021 7 11 0.00 0.00
9:53 am 09:53 Mostly Sunny 19 -7.2 14 -10 81 81 Calm 30.20 1023 7 11 0.00 0.00
10:53 am 10:53 Mostly Sunny 23 -5 16 -8.9 74 74 Calm 30.19 1023 7 11 0.00 0.00
11:53 am 11:53 Partly Cloudy 27 -2.8 17 -8.3 66 66 NE 7 11 30.18 1022 7 11 0.00 0.00
12:53 pm 12:53 Partly Cloudy 27 -2.8 18 -7.8 69 69 E 7 11 30.18 1022 8 13 0.00 0.00
1:53 pm 13:53 Mostly Cloudy 28 -2.2 18 -7.8 66 66 SSE 3 6 30.19 1022 7 11 0.00 0.00
2:53 pm 14:53 Mostly Cloudy 29 -1.7 19 -7.2 66 66 SE 8 13 30.19 1023 8 13 0.00 0.00
3:53 pm 15:53 Mostly Cloudy 27 -2.8 18 -7.8 69 69 ESE 7 11 30.20 1023 8 13 0.00 0.00
4:53 pm 16:53 Mostly Cloudy 27 -2.8 17 -8.3 66 66 E 7 11 30.20 1023 9 14 0.00 0.00
5:53 pm 17:53 Mostly Cloudy 26 -3.3 17 -8.3 69 69 E 7 11 30.21 1023 9 14 0.00 0.00
6:53 pm 18:53 Mostly Cloudy 24 -4.4 16 -8.9 71 71 ENE 8 13 30.22 1023 8 13 0.00 0.00
7:53 pm 19:53 Partly Cloudy 24 -4.4 16 -8.9 71 71 E 12 19 30.22 1023 8 13 0.00 0.00
8:53 pm 20:53 Partly Cloudy 23 -5 15 -9.4 72 72 ESE 13 20 30.23 1024 8 13 0.00 0.00
9:53 pm 21:53 Mostly Cloudy 22 -5.6 15 -9.4 75 75 ESE 8 13 30.23 1024 8 13 0.00 0.00
10:53 pm 22:53 Mostly Cloudy 23 -5 16 -8.9 74 74 ESE 10 17 30.23 1024 8 13 0.00 0.00
11:53 pm 23:53 Mostly Cloudy 23 -5 16 -8.9 74 74 ESE 10 17 30.22 1023 7 11 0.00 0.00

Powered by AerisWeather